Location: Unspecified
(0.0000°N, 0.0000°E)
Time: 02:16:34
(UTC+00:00)

KKS-1 - Pass Details

Date: 15 December 2017
Orbit: 637 x 651 km, 98.3° (Epoch: 20 January)

Event Time Altitude Azimuth Distance (km) Brightness Sun altitude
Rises 04:06:16 0° 138° (SE) 2,967 ? -24.8°
Reaches altitude 10° 04:09:11 10° 118° (ESE) 2,053 ? -24.2°
Maximum altitude 04:12:02 17° 78° (ENE) 1,643 ? -23.5°
Drops below altitude 10° 04:14:53 10° 38° (NE) 2,045 ? -22.9°
Sets 04:17:46 0° 18° (NNE) 2,950 ? -22.2°
